星链-2046 (STARLINK-2046 )

导读 | 豆包AI

STARLINK-2046是美国SpaceX星链星座的一员,于2021年1月20日发射。星链计划旨在搭建全球低轨卫星互联网网络,为地面偏远区域提供高速宽带服务。STARLINK-2046运行在近地轨道,和其他星链卫星共同组网,依靠星座互联能力支撑全球网络覆盖,帮助缩小数字鸿沟,是星链大规模组网阶段的重要组成卫星。

基本信息
目录编号:
47354
目录名称:
STARLINK-2046
国际标识:
2021-005F
轨道中心:
EARTH
卫星名称:
星链-2046
卫星全名:
星链-2046 (STARLINK-2046 )
卫星状态:
在轨 (已飞行1879 天)
发射日期:
2021-01-20 UTC
国别 :
美国 (US)
星等 :
--
轨道信息
数据来源 国际轨道数据 AOE轨道数据
星历时间 2026-03-13T13:17:47+0800
1天前
查看轨道信息
2026-03-13T16:00:00+0800
1天前
查看轨道信息
半长轴 6853.35km 6853.324km
偏心率 0.000141 0.0001448
轨道倾角 53.162° 53.164°
近地点辐角 75.927° 70.553°
升交点赤经 7.561° 7.043°
平近点角 284.189° 190.473°
近地点 474.246km 474.194km
远地点 476.18km 476.18km
周期 94.105分钟 94.105分钟
每日圈数 15.30201 15.302096
详细信息
固有亮度:
5
最大亮度:
2.5
卫星平台:
Starlink V1.0
覆盖范围:
全球
运营商:
太空探索技术公司
运营商所在国:
美国
制造商(研发单位):
太空探索技术公司
制造商所在国:
美国
使用方式:
暂无
卫星简介
星链(Starlink)计划是由太空探索技术公司(SpaceX)提出的一个巨型低轨卫星互联网星座项目,计划在2019年至2024年间在太空搭建由约1.2万颗卫星组成的“星链”网络,其中1584颗将部署在地球上空550千米处的近地轨道,并从2020年开始工作。该卫星仍在工作。
2D轨道图
3D轨道图
轨道高度分析图
轨道倾角分析图
轨道综合分析图
查看轨道综合分析图